GW3178 Weather Reports


time (UTC)temp
C
wind
direction
speed
KPH
gust
KPH
rain 1hr
cm
rain 24hr
cm
rain mn
cm
humidity
%
barometer
mb
20260510071743 11 164 0.0 0.0 0.00 0.03 0.03 98 1010.3
20260510071240 11 178 0.0 0.0 0.00 0.03 0.03 98 1010.2
20260510070738 11 178 0.0 0.0 0.00 0.03 0.03 98 1010.4
20260510070235 11 179 0.0 0.0 0.00 0.03 0.03 97 1010.5
20260510065729 11 179 0.0 0.0 0.00 0.03 0.03 97 1010.6
20260510065226 11 179 0.0 0.0 0.00 0.03 0.03 97 1010.5
20260510064722 11 176 0.0 0.0 0.00 0.03 0.03 96 1010.3
20260510064220 11 176 0.0 0.0 0.00 0.03 0.03 96 1010.3
20260510063717 11 177 0.0 0.0 0.00 0.03 0.03 96 1010.2
20260510063213 11 177 0.0 0.0 0.00 0.03 0.03 95 1010.2
20260510062710 11 177 0.0 0.0 0.00 0.03 0.03 95 1010.3
20260510062206 11 175 0.0 0.0 0.00 0.03 0.03 94 1010.4
20260510061701 12 176 0.0 0.0 0.00 0.03 0.03 94 1010.3
20260510061158 12 159 0.0 0.0 0.00 0.03 0.03 93 1009.9
20260510060655 12 166 0.0 0.0 0.00 0.03 0.03 92 1010.1
20260510060151 12 137 0.0 0.0 0.00 0.03 0.03 92 1009.9
20260510055648 12 154 0.0 0.0 0.00 0.03 0.03 90 1010.1
20260510055146 12 180 0.0 0.0 0.00 0.03 0.03 89 1009.8
20260510054641 11 168 0.0 0.0 0.00 0.03 0.03 95 1009.8
20260510054137 11 117 0.0 0.0 0.00 0.03 0.03 98 1009.7
20260510053631 11 131 0.0 0.0 0.00 0.03 0.03 98 1010.5
20260510053128 11 147 0.0 0.0 0.00 0.03 0.03 98 1010.8
20260510052624 11 151 0.0 0.0 0.00 0.03 0.03 98 1011.0
20260510052120 11 150 0.0 0.0 0.00 0.03 0.03 98 1011.3
20260510051615 11 152 0.0 0.0 0.00 0.03 0.03 98 1011.0
20260510051113 11 152 0.0 0.0 0.00 0.03 0.03 98 1010.8
20260510050610 11 152 0.0 0.0 0.00 0.03 0.03 98 1011.0
20260510050107 11 152 0.0 0.0 0.00 0.03 0.03 98 1010.9
20260510045604 11 138 0.0 0.0 0.00 0.03 0.03 98 1011.1
20260510045100 11 137 0.0 0.0 0.00 0.03 0.03 98 1011.4
20260510044556 12 145 0.0 0.0 0.00 0.03 0.03 98 1011.6
20260510044054 11 146 0.0 0.0 0.00 0.03 0.03 98 1011.7
20260510043549 11 146 0.0 0.0 0.18 0.03 0.03 98 1011.6
20260510043045 11 150 0.0 0.0 0.18 0.03 0.03 97 1011.8
20260510042539 11 140 0.0 0.0 0.00 0.00 0.00 97 1011.8
20260510042034 11 154 0.0 0.0 0.00 0.00 0.00 97 1011.8
20260510041531 11 164 0.0 0.0 0.00 0.00 0.00 97 1011.7
20260510041029 11 161 0.0 0.0 0.00 0.00 0.00 97 1011.6
20260510040525 11 150 0.0 0.0 0.00 0.00 0.00 97 1011.6
20260510040021 11 167 0.0 0.0 0.00 0.91 0.91 97 1011.2
20260510035518 11 168 0.0 0.0 0.00 0.91 0.91 97 1011.3
20260510035017 11 180 0.0 0.0 0.00 0.91 0.91 97 1011.4
20260510034516 11 208 0.0 0.0 0.00 0.91 0.91 96 1010.6
20260510034012 11 160 0.0 0.0 0.00 0.91 0.91 95 1010.2
20260510033508 11 160 0.0 0.0 0.00 0.91 0.91 95 1010.4
20260510033007 11 157 0.0 0.0 0.00 0.91 0.91 94 1010.4
20260510032502 11 166 0.0 0.0 0.00 0.91 0.91 94 1010.4
20260510031957 12 171 0.0 0.0 0.00 0.91 0.91 94 1010.4
20260510031453 12 162 0.0 0.0 0.00 0.91 0.91 93 1010.3
20260510030949 12 157 0.0 0.0 0.00 0.91 0.91 92 1010.2
20260510030444 12 164 0.0 0.0 0.00 0.91 0.91 91 1010.2
20260510025942 12 158 0.0 0.0 0.00 0.91 0.91 91 1009.8
20260510025439 13 110 0.0 0.0 0.00 0.91 0.91 90 1009.8
20260510024937 13 141 0.0 0.0 0.00 0.91 0.91 88 1009.5
20260510024433 13 163 0.0 0.0 0.00 0.91 0.91 88 1009.2
20260510023929 13 129 0.0 0.0 0.00 0.91 0.91 88 1009.1
20260510023425 13 131 0.0 0.0 0.00 0.91 0.91 89 1009.2
20260510022923 13 163 0.0 0.0 0.00 0.91 0.91 89 1009.0
20260510022421 13 141 0.0 0.0 0.00 0.91 0.91 90 1009.4
20260510021920 13 114 0.0 0.0 0.00 0.91 0.91 87 1009.4
20260510021419 13 149 0.0 0.0 0.00 0.91 0.91 87 1009.4
20260510020915 13 124 0.0 0.0 0.00 0.91 0.91 87 1009.6
20260510020410 13 144 0.0 0.0 0.00 0.91 0.91 87 1009.5
20260510015906 13 171 0.0 0.0 0.00 0.91 0.91 88 1009.4
20260510015402 13 118 0.0 0.0 0.00 0.91 0.91 88 1009.4
20260510014857 13 139 0.0 0.0 0.00 0.91 0.91 87 1009.3
20260510014355 14 143 0.0 0.0 0.00 0.91 0.91 85 1009.3
20260510013851 14 117 0.0 0.0 0.00 0.91 0.91 85 1009.4
20260510013347 14 167 0.0 0.0 0.00 0.91 0.91 86 1009.1
20260510012847 14 113 0.0 0.0 0.00 0.91 0.91 86 1009.1
20260510012342 14 131 0.0 0.0 0.00 0.91 0.91 86 1009.1
20260510011837 14 147 0.0 0.0 0.00 0.91 0.91 86 1008.9
20260510011332 14 174 0.0 1.6 0.00 0.91 0.91 86 1009.0
20260510010829 14 152 0.0 0.0 0.00 0.91 0.91 86 1008.9
20260510010326 14 165 0.0 0.0 0.00 0.91 0.91 87 1008.8
20260510005823 14 163 0.0 0.0 0.00 0.91 0.91 87 1008.5
20260510005319 14 165 0.0 0.0 0.00 0.91 0.91 87 1008.7
20260510004817 14 128 0.0 0.0 0.00 0.91 0.91 87 1008.7
20260510004314 14 154 0.0 0.0 0.00 0.91 0.91 87 1008.4
20260510003812 14 157 0.0 0.0 0.00 0.91 0.91 87 1008.5
20260510003308 14 195 0.0 1.6 0.00 0.91 0.91 86 1008.5
20260510002807 14 136 0.0 0.0 0.00 0.91 0.91 87 1008.3
20260510002307 14 166 0.0 0.0 0.00 0.91 0.91 86 1008.4
20260510001801 15 145 0.0 1.6 0.00 0.91 0.91 86 1008.3
20260510001300 15 148 0.0 0.0 0.00 0.91 0.91 86 1008.3
20260510000754 15 167 0.0 0.0 0.00 0.91 0.91 85 1008.1
20260510000253 15 150 0.0 0.0 0.00 0.91 0.91 84 1008.1
20260509235750 15 108 0.0 0.0 0.00 0.91 0.91 84 1008.0
20260509235246 15 149 0.0 0.0 0.00 0.91 0.91 84 1007.9
20260509234742 15 147 0.0 0.0 0.00 0.91 0.91 85 1008.1
20260509234239 15 156 0.0 0.0 0.00 0.91 0.91 82 1007.9
20260509233737 15 152 0.0 0.0 0.00 0.91 0.91 83 1007.9
20260509233234 16 141 0.0 0.0 0.00 0.91 0.91 82 1007.9
20260509232730 16 144 0.0 0.0 0.00 0.91 0.91 81 1007.9
20260509232227 16 149 0.0 0.0 0.00 0.91 0.91 80 1007.8
20260509231724 16 140 0.0 0.0 0.00 0.91 0.91 80 1007.6
20260509231221 16 153 0.0 0.0 0.00 0.91 0.91 78 1007.9
20260509230719 16 214 0.0 0.0 0.00 0.91 0.91 81 1007.8
20260509230215 16 148 0.0 0.0 0.00 0.91 0.91 82 1007.8
20260509225711 16 148 0.0 0.0 0.00 0.91 0.91 82 1007.9
20260509225207 16 147 0.0 0.0 0.00 0.91 0.91 82 1007.8
20260509224702 16 165 0.0 0.0 0.00 0.91 0.91 82 1008.0
20260509224200 16 149 0.0 0.0 0.00 0.91 0.91 82 1007.8
20260509223656 16 151 0.0 0.0 0.00 0.91 0.91 83 1008.1
20260509223148 16 141 0.0 0.0 0.00 0.91 0.91 83 1008.2
20260509222645 16 133 0.0 0.0 0.00 0.91 0.91 82 1008.1
20260509222140 16 109 0.0 0.0 0.00 0.91 0.91 81 1007.9
20260509221636 16 171 0.0 0.0 0.00 0.91 0.91 78 1008.1
20260509221132 16 204 0.0 0.0 0.00 0.91 0.91 79 1008.0
20260509220628 16 180 0.0 0.0 0.00 0.91 0.91 83 1008.0
20260509220124 16 182 0.0 0.0 0.00 0.91 0.91 83 1008.0
20260509215620 16 167 0.0 0.0 0.00 0.91 0.91 81 1008.3
20260509215117 16 155 0.0 0.0 0.00 0.91 0.91 82 1008.1
20260509214614 16 125 0.0 0.0 0.00 0.91 0.91 79 1008.2
20260509214111 16 118 0.0 0.0 0.00 0.91 0.91 82 1008.3
20260509213602 16 140 0.0 0.0 0.00 0.91 0.91 86 1008.4
20260509213058 15 122 0.0 0.0 0.00 0.91 0.91 87 1008.3
20260509212555 15 122 0.0 0.0 0.00 0.91 0.91 88 1008.3
20260509212052 15 176 0.0 0.0 0.00 0.91 0.91 88 1008.5
20260509211548 15 176 0.0 0.0 0.00 0.91 0.91 92 1008.7
20260509211045 15 177 0.0 0.0 0.00 0.91 0.91 91 1008.6
20260509210541 15 172 0.0 0.0 0.00 0.91 0.91 91 1008.7
20260509210037 15 170 0.0 0.0 0.00 0.91 0.91 91 1008.6
20260509205532 15 155 0.0 0.0 0.00 0.91 0.91 91 1008.7
20260509205028 15 157 0.0 0.0 0.00 0.91 0.91 90 1008.7
20260509204524 15 127 0.0 0.0 0.00 0.91 0.91 91 1008.7
20260509204021 14 130 0.0 0.0 0.00 0.91 0.91 93 1008.3
20260509203516 13 205 1.6 1.6 0.00 0.91 0.91 92 1008.6
20260509203015 13 185 0.0 0.0 0.00 0.91 0.91 94 1008.9
20260509202509 13 172 0.0 0.0 0.00 0.91 0.91 95 1008.8
20260509202005 13 181 0.0 0.0 0.00 0.91 0.91 95 1008.8
20260509201500 13 167 0.0 0.0 0.00 0.91 0.91 95 1008.9
20260509200958 13 164 0.0 0.0 0.00 0.91 0.91 94 1008.8
20260509200452 13 173 0.0 0.0 0.00 0.91 0.91 96 1009.0
20260509195948 13 172 0.0 0.0 0.00 0.91 0.91 95 1009.1
20260509195439 13 163 0.0 0.0 0.00 0.91 0.91 96 1009.2
20260509194938 13 148 0.0 0.0 0.00 0.91 0.91 96 1009.2
20260509194434 13 161 0.0 0.0 0.18 0.91 0.91 96 1009.3
20260509193931 13 172 0.0 0.0 0.18 0.91 0.91 96 1009.1
20260509193431 13 158 0.0 0.0 0.13 0.89 0.89 95 1009.5
20260509192927 13 170 0.0 0.0 0.13 0.89 0.89 95 1009.6
20260509192424 13 160 0.0 0.0 0.00 0.86 0.86 95 1009.5
20260509191919 13 167 0.0 0.0 0.00 0.86 0.86 95 1009.3
20260509191415 13 160 0.0 0.0 0.00 0.86 0.86 94 1009.5
20260509190911 13 189 0.0 0.0 0.00 0.86 0.86 94 1009.6
20260509190408 12 148 0.0 0.0 0.00 0.86 0.86 94 1009.3
20260509185906 12 144 0.0 0.0 0.00 0.86 0.86 96 1009.6
20260509185403 12 179 0.0 0.0 0.18 0.86 0.86 97 1009.7
20260509184859 12 166 0.0 0.0 0.18 0.86 0.86 97 1009.4
20260509184356 12 167 0.0 0.0 0.00 0.84 0.84 97 1009.6
20260509183854 12 155 0.0 0.0 0.00 0.84 0.84 98 1009.5
20260509183348 12 135 0.0 0.0 0.00 0.84 0.84 98 1009.6
20260509182844 12 155 0.0 0.0 0.00 0.84 0.84 98 1009.5
20260509182342 12 153 0.0 0.0 0.13 0.84 0.84 98 1009.7
20260509181839 12 160 0.0 0.0 0.13 0.84 0.84 98 1009.5
20260509181336 12 120 0.0 0.0 0.13 0.84 0.84 99 1009.4
20260509180833 12 148 0.0 0.0 0.00 0.81 0.81 98 1009.8
20260509180329 12 150 0.0 0.0 0.00 0.81 0.81 98 1009.5
20260509175826 12 169 0.0 0.0 0.18 0.81 0.81 98 1009.3
20260509175322 12 109 0.0 0.0 0.18 0.81 0.81 98 1009.3
20260509174818 12 146 0.0 0.0 0.00 0.79 0.79 98 1009.6
20260509174314 12 153 0.0 0.0 0.00 0.79 0.79 98 1009.4
20260509173810 12 145 0.0 0.0 0.13 0.79 0.79 97 1009.7
20260509173306 11 150 0.0 0.0 0.13 0.79 0.79 97 1009.4
20260509172801 11 121 0.0 0.0 0.00 0.76 0.76 96 1009.6
20260509172253 11 127 0.0 0.0 0.18 0.76 0.76 96 1009.4
20260509171749 11 148 0.0 0.0 0.18 0.76 0.76 97 1009.7
20260509171245 12 163 0.0 0.0 0.00 0.74 0.74 97 1009.6
20260509170742 11 89 0.0 0.0 0.13 0.74 0.74 96 1009.5
20260509170238 11 113 0.0 0.0 0.30 0.74 0.74 97 1009.6
20260509165736 11 129 0.0 0.0 0.30 0.71 0.71 98 1009.6
20260509165232 11 153 0.0 0.0 0.13 0.69 0.69 98 1009.6
20260509164728 11 155 0.0 0.0 0.30 0.69 0.69 98 1009.6
20260509164224 11 155 0.0 0.0 0.30 0.66 0.66 98 1009.5
20260509163721 11 157 0.0 0.0 0.30 0.64 0.64 98 1009.4
20260509163217 11 134 0.0 0.0 0.36 0.61 0.61 98 1009.4
20260509162715 11 149 0.0 0.0 0.18 0.58 0.58 97 1009.6
20260509162210 11 118 0.0 0.0 0.13 0.56 0.56 98 1009.6
20260509161706 11 146 0.0 0.0 0.13 0.56 0.56 98 1009.8
20260509161203 11 165 0.0 0.0 0.13 0.56 0.56 97 1009.9
20260509160658 11 151 0.0 0.0 0.00 0.53 0.53 98 1010.0
20260509160154 11 158 0.0 0.0 0.00 0.53 0.53 98 1009.9
20260509155650 12 144 0.0 0.0 0.18 0.53 0.53 98 1009.9
20260509155146 11 148 0.0 0.0 0.18 0.53 0.53 98 1009.9
20260509154642 11 144 0.0 0.0 0.00 0.51 0.51 98 1009.7
20260509154139 11 166 0.0 0.0 0.00 0.51 0.51 98 1009.8
20260509153636 11 133 0.0 0.0 0.00 0.51 0.51 98 1010.1
20260509153133 11 152 0.0 0.0 0.00 0.51 0.51 99 1009.8
20260509152628 11 147 0.0 0.0 0.00 0.51 0.51 98 1010.0
20260509152126 11 146 0.0 0.0 0.00 0.51 0.51 98 1010.0
20260509151622 11 141 0.0 0.0 0.13 0.51 0.51 98 1010.3
20260509151120 11 149 0.0 0.0 0.13 0.51 0.51 98 1010.0
20260509150618 11 135 0.0 0.0 0.18 0.48 0.48 98 1010.0
20260509150116 10 153 0.0 0.0 0.18 0.48 0.48 98 1010.2
20260509145611 10 150 0.0 0.0 0.13 0.46 0.46 98 1010.2
20260509145107 10 130 0.0 0.0 0.30 0.46 0.46 99 1010.3
20260509144604 10 127 0.0 0.0 0.18 0.43 0.43 99 1010.3
20260509144101 10 153 0.0 0.0 0.13 0.41 0.41 99 1010.2
20260509143558 10 147 0.0 0.0 0.13 0.41 0.41 99 1010.2
20260509143056 10 148 0.0 0.0 0.18 0.38 0.38 99 1010.2
20260509142550 10 137 0.0 0.0 0.18 0.38 0.38 99 1010.4
20260509142047 10 150 0.0 0.0 0.13 0.36 0.36 99 1010.4
20260509141543 10 118 0.0 0.0 0.13 0.36 0.36 99 1010.1
20260509141040 10 155 0.0 0.0 0.18 0.33 0.33 99 1010.3
20260509140537 10 140 0.0 0.0 0.18 0.33 0.33 99 1010.4
20260509140035 10 154 0.0 0.0 0.13 0.30 0.30 99 1010.4
20260509135532 10 156 0.0 0.0 0.13 0.30 0.30 99 1010.5
20260509135030 10 148 0.0 0.0 0.00 0.28 0.28 99 1010.5
20260509134526 10 137 0.0 0.0 0.18 0.28 0.28 99 1010.5
20260509134024 10 150 0.0 0.0 0.18 0.28 0.28 99 1010.6
20260509133520 10 146 0.0 0.0 0.00 0.25 0.25 99 1010.6
20260509133018 10 148 0.0 0.0 0.00 0.25 0.25 99 1010.7
20260509132516 10 149 0.0 0.0 0.18 0.25 0.25 99 1010.7
20260509132014 10 115 0.0 1.6 0.18 0.25 0.25 99 1010.6
20260509131510 10 139 0.0 1.6 0.18 0.25 0.25 99 1010.6
20260509131007 10 144 0.0 0.0 0.00 0.23 0.23 99 1010.9
20260509130502 10 147 0.0 0.0 0.00 0.23 0.23 99 1010.6
20260509130000 10 148 0.0 0.0 0.00 0.23 0.23 99 1010.5
20260509125456 10 139 0.0 0.0 0.00 0.23 0.23 99 1010.6
20260509124952 10 149 0.0 0.0 0.13 0.23 0.23 99 1010.8
20260509124449 10 152 0.0 0.0 0.13 0.23 0.23 99 1010.8
20260509123946 10 154 0.0 0.0 0.00 0.20 0.20 99 1010.9
20260509123444 10 154 0.0 0.0 0.00 0.20 0.20 99 1010.8
20260509122939 10 154 0.0 0.0 0.00 0.20 0.20 99 1010.9
20260509122437 10 154 0.0 0.0 0.00 0.20 0.20 99 1010.9
20260509121933 10 154 0.0 0.0 0.00 0.20 0.20 99 1010.8
20260509121430 10 155 0.0 0.0 0.00 0.20 0.20 99 1011.0
20260509120928 10 155 0.0 0.0 0.00 0.20 0.20 99 1010.9
20260509120426 10 154 0.0 0.0 0.00 0.20 0.20 99 1010.9
20260509115924 10 155 0.0 0.0 0.00 0.20 0.20 99 1011.0
20260509115421 10 153 0.0 0.0 0.18 0.20 0.20 99 1010.9
20260509114918 10 153 0.0 0.0 0.18 0.20 0.20 99 1010.8
20260509114417 10 153 0.0 0.0 0.18 0.20 0.20 99 1010.7
20260509113916 10 153 0.0 0.0 0.00 0.18 0.18 99 1011.0
20260509113413 10 152 0.0 0.0 0.00 0.18 0.18 99 1010.9
20260509112910 10 152 0.0 0.0 0.00 0.18 0.18 99 1010.9
20260509112407 9 152 0.0 0.0 0.00 0.18 0.18 99 1010.9
20260509111904 -17 0.0 0.0 0.00 0.00 0.00 1010.9
20260509111400 -17 0.0 0.0 0.00 0.00 0.00 1011.0
20260509110858 9 150 0.0 0.0 0.00 0.18 0.18 99 1010.8
20260509110354 9 150 0.0 0.0 0.00 0.18 0.18 99 1011.0
20260509105853 9 150 0.0 0.0 0.00 0.18 0.18 99 1010.8
20260509105350 -17 0.0 0.0 0.00 0.00 0.00 1010.8
20260509104847 9 147 0.0 0.0 0.00 0.18 0.18 99 1010.9
20260509104343 9 147 0.0 0.0 0.00 0.18 0.18 99 1011.1
20260509103841 9 145 0.0 0.0 0.00 0.18 0.18 99 1010.8
20260509103338 9 149 0.0 0.0 0.00 0.18 0.18 99 1010.9
20260509102837 9 148 0.0 0.0 0.13 0.18 0.18 99 1011.0
20260509102334 9 148 0.0 0.0 0.13 0.18 0.18 99 1010.9
20260509101830 9 148 0.0 0.0 0.00 0.15 0.15 99 1010.6
20260509101326 9 147 0.0 0.0 0.00 0.15 0.15 99 1010.6
20260509100824 9 147 0.0 0.0 0.00 0.15 0.15 99 1010.8
20260509100321 -17 0.0 0.0 0.00 0.00 0.00 1010.8
20260509095817 9 129 0.0 0.0 0.00 0.15 0.15 99 1010.8
20260509095315 9 129 0.0 0.0 0.00 0.15 0.15 99 1010.6
20260509094812 9 143 0.0 0.0 0.00 0.15 0.15 99 1010.5
20260509094309 9 142 0.0 0.0 0.00 0.15 0.15 99 1010.7
20260509093806 9 149 0.0 0.0 0.00 0.15 0.15 99 1010.9
20260509093303 9 151 0.0 0.0 0.00 0.15 0.15 99 1010.9
20260509092802 9 152 0.0 0.0 0.00 0.15 0.15 99 1010.9
20260509092259 9 152 0.0 0.0 0.00 0.15 0.15 99 1011.0
20260509091757 -17 0.0 0.0 0.00 0.00 0.00 1011.2
20260509091254 -17 0.0 0.0 0.00 0.00 0.00 1011.2
20260509090751 9 150 0.0 0.0 0.00 0.15 0.15 99 1011.2
20260509090248 9 150 0.0 0.0 0.00 0.15 0.15 99 1011.3
20260509085746 -17 0.0 0.0 0.00 0.00 0.00 1011.0
20260509085243 9 152 0.0 0.0 0.00 0.15 0.15 99 1011.2
20260509084739 9 152 0.0 0.0 0.00 0.15 0.15 99 1011.1
20260509084236 9 136 0.0 0.0 0.00 0.15 0.15 99 1010.9
20260509083734 9 131 0.0 0.0 0.00 0.15 0.15 99 1011.2
20260509083230 9 129 0.0 0.0 0.00 0.15 0.15 99 1011.1
20260509082727 9 146 0.0 0.0 0.00 0.15 0.15 99 1011.0
20260509082224 9 146 0.0 0.0 0.00 0.15 0.15 99 1011.1
20260509081720 9 146 0.0 0.0 0.00 0.15 0.15 99 1011.1
20260509081218 9 139 0.0 0.0 0.00 0.15 0.15 99 1010.9
20260509080716 9 136 0.0 0.0 0.00 0.15 0.15 99 1011.0
20260509080214 9 131 0.0 0.0 0.00 0.15 0.15 99 1011.0
20260509075712 -17 0.0 0.0 0.00 0.00 0.00 1011.0
20260509075209 -17 0.0 0.0 0.00 0.00 0.00 1011.2
20260509074706 9 151 0.0 0.0 0.00 0.15 0.15 99 1011.4
20260509074203 9 151 0.0 0.0 0.00 0.15 0.15 99 1011.1
20260509073659 9 136 0.0 0.0 0.00 0.15 0.15 99 1011.2
20260509073156 9 132 0.0 0.0 0.18 0.15 0.15 99 1011.1
20260509072652 9 141 0.0 0.0 0.18 0.15 0.15 99 1011.2
20260509072149 9 140 0.0 0.0 0.00 0.13 0.13 99 1011.4